This demonstration page uses our WeatherBlox Daily Observations layout. Learn more.

Left ArrowRight Arrow

Hourly Observations for October 25, 2022

Temp ( °F °C ) Dew Point ( °F °C ) Humidity (%) Winds ( mph kmh ) Pressure ( in mb ) Visibility ( mi km ) Precip ( " mm )
12:51 am 00:51 Clear 42 5.6 27 -2.8 55 55 SSE 3 6 30.13 1020 10 16 0.00 0.00
1:51 am 01:51 Clear 39 3.9 29 -1.7 67 67 ESE 3 6 30.13 1020 10 16 0.00 0.00
2:51 am 02:51 Clear 38 3.3 30 -1.1 73 73 Calm 30.13 1020 10 16 0.00 0.00
3:51 am 03:51 Clear 38 3.3 29 -1.7 70 70 Calm 30.11 1020 10 16 0.00 0.00
4:51 am 04:51 Clear 34 1.1 30 -1.1 85 85 ESE 3 6 30.13 1020 10 16 0.00 0.00
5:51 am 05:51 Clear 34 1.1 29 -1.7 82 82 Calm 30.14 1021 10 16 0.00 0.00
6:51 am 06:51 Sunny 34 1.1 29 -1.7 82 82 Calm 30.15 1021 10 16 0.00 0.00
7:51 am 07:51 Sunny 40 4.4 30 -1.1 67 67 Calm 30.16 1021 10 16 0.00 0.00
8:51 am 08:51 Sunny 45 7.2 30 -1.1 55 55 Calm 30.16 1021 10 16 0.00 0.00
9:51 am 09:51 Sunny 53 11.7 26 -3.3 35 35 Calm 30.13 1020 10 16 0.00 0.00
10:51 am 10:51 Sunny 56 13.3 28 -2.2 34 34 SSE 3 6 30.11 1020 10 16 0.00 0.00
11:51 am 11:51 Sunny 60 15.6 26 -3.3 27 27 Calm 30.07 1018 10 16 0.00 0.00
12:51 pm 12:51 Sunny 62 16.7 23 -5 22 22 SSE 3 6 30.04 1017 10 16 0.00 0.00
1:51 pm 13:51 Sunny 65 18.3 19 -7.2 17 17 Calm 29.99 1016 10 16 0.00 0.00
2:51 pm 14:51 Sunny 67 19.4 18 -7.8 15 15 VRB 3 6 29.96 1015 10 16 0.00 0.00
3:51 pm 15:51 Sunny 67 19.4 16 -8.9 14 14 SW 3 6 29.95 1014 10 16 0.00 0.00
4:51 pm 16:51 Sunny 67 19.4 15 -9.4 13 13 SW 5 7 29.94 1014 10 16 0.00 0.00
5:51 pm 17:51 Clear 61 16.1 22 -5.6 22 22 NW 5 7 29.96 1015 10 16 0.00 0.00
6:51 pm 18:51 Clear 54 12.2 30 -1.1 40 40 N 7 11 29.98 1015 10 16 0.00 0.00
7:51 pm 19:51 Clear 54 12.2 28 -2.2 37 37 WSW 5 7 29.98 1015 10 16 0.00 0.00
8:51 pm 20:51 Clear 49 9.4 31 -0.6 50 50 ENE 3 6 29.98 1015 10 16 0.00 0.00
9:51 pm 21:51 Clear 47 8.3 30 -1.1 51 51 SE 3 6 29.98 1015 10 16 0.00 0.00
10:51 pm 22:51 Clear 46 7.8 31 -0.6 55 55 E 3 6 29.98 1015 10 16 0.00 0.00
11:51 pm 23:51 Clear 44 6.7 31 -0.6 60 60 SSE 3 6 29.96 1015 10 16 0.00 0.00

Powered by AerisWeather